sat.trackr.live / text

‹ back to catalog

STARLINK-31009

NORAD 58530 · 2023-191Y

PAYLOAD ACTIVE UNKNOWN

§ Identity

Operator
Country
US
Launch date
2023-12-07
Launch site
AFETR
Launch vehicle
Mass (kg)
RCS (m²)

Purposes: comms

External: N2YO · Heavens-Above · Gunter

§ Orbital elements

Epoch: 2026-05-25T01:47:13.864992Z

Period
94.27 min
Inclination
43.0057°
Eccentricity
0.0001337
Mean motion
15.27582912 rev/d
Perigee alt
482.1 km
Apogee alt
484.0 km
Semi-major
6,861.2 km
B*
1.2762e-5
RAAN
32.0252°
Arg perigee
263.5716°
Mean anomaly
96.4984°
Rev number
13,717

§ Raw data

STARLINK-310091 58530U 23191Y   26145.07446603  .00000089  00000+0  12762-4 0  99932 58530  43.0057  32.0252 0001337 263.5716  96.4984 15.27582912137171

JSON: /api/v1/satellites/58530 · /tle

For live sub-satellite position, see the globe view (requires WebGL).

§ Visibility from observer

Set your observer location to see the next 7 days of passes ≥ 10°. The values pass through the URL so the page stays shareable.

No JS? Fill the form by hand. The geolocation button needs JavaScript.